Location: Mount Cross
(36.6390°N, 79.4878°W)
Time: 02:23:32
(UTC+00:00)

Vanguard 2 Rocket - Pass Details

Date: 27 March 2023
Orbit: 554 x 3314 km, 32.9° (Epoch: 08 June)

Event Time Altitude Azimuth Distance (km) Brightness Sun altitude
Exits shadow 08:41:49 12° 194° (SSW) 6,114 10.7 -29.5°
Drops below altitude 10° 08:43:22 10° 190° (S) 6,261 10.8 -29.3°
Sets 08:51:19 0° 172° (S) 7,160 11.3 -27.9°
